Location: D�rnast
(49.6426°N, 11.9755°E)
Time: 00:35:59
(UTC+00:00)

BlueWalker 3 - Pass Details

Date: 05 December 2022
Orbit: 499 x 517 km, 53.2° (Epoch: 26 January)

Event Time Altitude Azimuth Distance (km) Brightness Sun altitude
Rises 16:34:56 0° 285° (WNW) 2,635 6.6 -12.6°
Reaches altitude 10° 16:37:11 10° 290° (WNW) 1,743 5.4 -12.9°
Maximum altitude 16:41:03 52° 8° (N) 643 2.3 -13.5°
Enters shadow 16:43:08 24° 75° (ENE) 1,086 3.0 -13.9°
